Previsão horária em Juàzeirinho

Hoje, 14 Junho, Segunda-feira

Tempo Temperatura Precipitação Vento Pressão Humidade
00:00 +23°C° 0 mm 1 m/s 742 mmHg 67%
01:00 +22°C° 0 mm 1 m/s 741 mmHg 69%
02:00 +22°C° 0 mm 1 m/s 741 mmHg 72%
03:00 +22°C° 0 mm 1 m/s 741 mmHg 74%
04:00 +21°C° 0 mm 1 m/s 741 mmHg 77%
05:00 +21°C° 0 mm 1 m/s 741 mmHg 80%
06:00 +21°C° 0 mm 1 m/s 742 mmHg 82%
07:00 +24°C° 0 mm 2 m/s 742 mmHg 70%
08:00 +27°C° 0 mm 2 m/s 743 mmHg 58%
09:00 +30°C° 0 mm 3 m/s 743 mmHg 45%
10:00 +33°C° 0 mm 3 m/s 742 mmHg 39%
11:00 +34°C° 0 mm 2 m/s 742 mmHg 33%
12:00 +36°C° 0 mm 2 m/s 741 mmHg 27%
13:00 +37°C° 0 mm 2 m/s 740 mmHg 25%
14:00 +38°C° 0 mm 2 m/s 739 mmHg 23%
15:00 +38°C° 0 mm 2 m/s 739 mmHg 21%
16:00 +36°C° 0 mm 2 m/s 739 mmHg 25%
17:00 +32°C° 0 mm 2 m/s 739 mmHg 29%
18:00 +29°C° 0 mm 1 m/s 739 mmHg 34%
19:00 +28°C° 0 mm 2 m/s 740 mmHg 39%
20:00 +28°C° 0 mm 3 m/s 741 mmHg 45%
21:00 +27°C° 0 mm 3 m/s 741 mmHg 50%
22:00 +26°C° 0 mm 3 m/s 742 mmHg 57%
23:00 +25°C° 0 mm 2 m/s 742 mmHg 64%

Amanhã, 15 Junho, Terça-feira

Tempo Temperatura Precipitação Vento Pressão Humidade
00:00 +24°C° 0 mm 2 m/s 742 mmHg 71%
01:00 +24°C° 0 mm 2 m/s 742 mmHg 76%
02:00 +23°C° 0 mm 2 m/s 742 mmHg 80%
03:00 +23°C° 0 mm 2 m/s 741 mmHg 84%
04:00 +23°C° 0 mm 2 m/s 742 mmHg 87%
05:00 +22°C° 0 mm 1 m/s 742 mmHg 89%
06:00 +22°C° 0 mm 1 m/s 742 mmHg 91%
07:00 +24°C° 0 mm 2 m/s 743 mmHg 78%
08:00 +27°C° 0 mm 2 m/s 743 mmHg 66%
09:00 +29°C° 0 mm 3 m/s 743 mmHg 53%
10:00 +31°C° 0 mm 3 m/s 742 mmHg 47%
11:00 +34°C° 0 mm 2 m/s 742 mmHg 41%
12:00 +36°C° 0 mm 2 m/s 741 mmHg 35%
13:00 +37°C° 0 mm 2 m/s 740 mmHg 33%
14:00 +36°C° 0 mm 1 m/s 739 mmHg 30%
15:00 +37°C° 0 mm 1 m/s 738 mmHg 27%
16:00 +36°C° 0 mm 2 m/s 739 mmHg 34%
17:00 +34°C° 0 mm 3 m/s 739 mmHg 40%
18:00 +32°C° 0 mm 4 m/s 740 mmHg 47%
19:00 +30°C° 0 mm 4 m/s 740 mmHg 52%
20:00 +29°C° 0 mm 3 m/s 741 mmHg 58%
21:00 +28°C° 0 mm 2 m/s 742 mmHg 64%
22:00 +27°C° 0 mm 2 m/s 741 mmHg 68%
23:00 +26°C° 0 mm 2 m/s 741 mmHg 73%

Depois de amanhã, 16 Junho, Quarta-feira

Tempo Temperatura Precipitação Vento Pressão Humidade
00:00 +25°C° 0 mm 1 m/s 741 mmHg 77%
01:00 +25°C° 0 mm 1 m/s 741 mmHg 79%
02:00 +24°C° 0 mm 1 m/s 741 mmHg 81%
03:00 +24°C° 0 mm 1 m/s 741 mmHg 83%
04:00 +24°C° 0 mm 1 m/s 741 mmHg 84%
05:00 +23°C° 0 mm 1 m/s 741 mmHg 85%
06:00 +23°C° 0 mm 1 m/s 741 mmHg 87%
07:00 +25°C° 0 mm 1 m/s 742 mmHg 76%
08:00 +28°C° 0 mm 2 m/s 742 mmHg 65%
09:00 +30°C° 0 mm 2 m/s 742 mmHg 55%
10:00 +32°C° 0 mm 2 m/s 742 mmHg 48%
11:00 +35°C° 0 mm 2 m/s 741 mmHg 42%
12:00 +37°C° 0 mm 2 m/s 740 mmHg 36%
13:00 +37°C° 0 mm 2 m/s 739 mmHg 33%
14:00 +37°C° 0 mm 1 m/s 739 mmHg 30%
15:00 +37°C° 0 mm 1 m/s 738 mmHg 27%
16:00 +36°C° 0 mm 2 m/s 738 mmHg 32%
17:00 +34°C° 0 mm 2 m/s 738 mmHg 37%
18:00 +31°C° 0 mm 2 m/s 738 mmHg 42%
19:00 +30°C° 0.2 mm 2 m/s 739 mmHg 49%
20:00 +29°C° 0.2 mm 2 m/s 740 mmHg 56%
21:00 +28°C° 0.2 mm 2 m/s 741 mmHg 64%
22:00 +27°C° 0.3 mm 2 m/s 741 mmHg 70%
23:00 +26°C° 0.3 mm 2 m/s 741 mmHg 76%

17 Junho, Quinta-feira

Tempo Temperatura Precipitação Vento Pressão Humidade
00:00 +26°C° 0.3 mm 2 m/s 741 mmHg 82%
01:00 +25°C° 0.1 mm 2 m/s 741 mmHg 83%
02:00 +25°C° 0.1 mm 1 m/s 741 mmHg 85%
03:00 +25°C° 0.1 mm 1 m/s 741 mmHg 87%
04:00 +24°C° 0 mm 1 m/s 741 mmHg 88%
05:00 +24°C° 0 mm 1 m/s 741 mmHg 89%
06:00 +23°C° 0 mm 1 m/s 742 mmHg 90%
07:00 +25°C° 0 mm 1 m/s 742 mmHg 80%
08:00 +27°C° 0 mm 2 m/s 742 mmHg 70%
09:00 +29°C° 0 mm 2 m/s 743 mmHg 60%
10:00 +31°C° 0 mm 2 m/s 742 mmHg 52%
11:00 +35°C° 0 mm 2 m/s 741 mmHg 43%
12:00 +37°C° 0 mm 2 m/s 741 mmHg 34%
13:00 +37°C° 0 mm 2 m/s 740 mmHg 30%
14:00 +38°C° 0 mm 2 m/s 739 mmHg 27%
15:00 +39°C° 0 mm 2 m/s 738 mmHg 23%
16:00 +37°C° 0 mm 2 m/s 739 mmHg 25%
17:00 +36°C° 0 mm 2 m/s 739 mmHg 27%
18:00 +34°C° 0 mm 2 m/s 739 mmHg 29%
19:00 +33°C° 0 mm 3 m/s 740 mmHg 37%
20:00 +30°C° 0 mm 3 m/s 741 mmHg 44%
21:00 +29°C° 0 mm 4 m/s 742 mmHg 52%
22:00 +28°C° 0 mm 3 m/s 742 mmHg 57%
23:00 +26°C° 0 mm 3 m/s 742 mmHg 62%

18 Junho, Sexta-feira

Tempo Temperatura Precipitação Vento Pressão Humidade
00:00 +25°C° 0 mm 2 m/s 742 mmHg 68%
01:00 +24°C° 0 mm 2 m/s 742 mmHg 72%
02:00 +24°C° 0 mm 2 m/s 742 mmHg 76%
03:00 +23°C° 0 mm 2 m/s 741 mmHg 81%
04:00 +23°C° 0 mm 2 m/s 742 mmHg 82%
05:00 +21°C° 0 mm 2 m/s 742 mmHg 84%
06:00 +21°C° 0 mm 2 m/s 743 mmHg 85%
07:00 +25°C° 0 mm 3 m/s 743 mmHg 73%
08:00 +27°C° 0 mm 4 m/s 744 mmHg 62%
09:00 +29°C° 0 mm 4 m/s 744 mmHg 50%
10:00 +32°C° 0 mm 4 m/s 743 mmHg 45%
11:00 +34°C° 0 mm 4 m/s 743 mmHg 40%
12:00 +36°C° 0 mm 4 m/s 742 mmHg 36%
13:00 +36°C° 0 mm 4 m/s 741 mmHg 36%
14:00 +36°C° 0 mm 4 m/s 741 mmHg 36%
15:00 +36°C° 0 mm 4 m/s 740 mmHg 36%
16:00 +33°C° 0.3 mm 3 m/s 740 mmHg 48%
17:00 +30°C° 0.3 mm 2 m/s 741 mmHg 60%
18:00 +27°C° 0.3 mm 1 m/s 741 mmHg 72%
19:00 +27°C° 0.1 mm 1 m/s 742 mmHg 71%
20:00 +27°C° 0.1 mm 2 m/s 742 mmHg 71%
21:00 +27°C° 0.1 mm 2 m/s 743 mmHg 70%
22:00 +26°C° 0 mm 2 m/s 743 mmHg 70%
23:00 +25°C° 0 mm 2 m/s 743 mmHg 70%

19 Junho, Sábado

Tempo Temperatura Precipitação Vento Pressão Humidade
00:00 +25°C° 0 mm 2 m/s 743 mmHg 69%
01:00 +24°C° 0 mm 2 m/s 742 mmHg 72%
02:00 +23°C° 0 mm 2 m/s 742 mmHg 74%
03:00 +23°C° 0 mm 2 m/s 742 mmHg 76%
04:00 +23°C° 0 mm 2 m/s 742 mmHg 78%
05:00 +21°C° 0 mm 2 m/s 742 mmHg 79%
06:00 +21°C° 0 mm 2 m/s 743 mmHg 80%
07:00 +24°C° 0 mm 2 m/s 743 mmHg 72%
08:00 +27°C° 0 mm 2 m/s 743 mmHg 63%
09:00 +29°C° 0 mm 3 m/s 744 mmHg 55%
10:00 +31°C° 0 mm 3 m/s 743 mmHg 49%
11:00 +34°C° 0 mm 2 m/s 743 mmHg 43%
12:00 +35°C° 0 mm 2 m/s 742 mmHg 38%
13:00 +36°C° 0 mm 2 m/s 741 mmHg 36%
14:00 +36°C° 0 mm 2 m/s 741 mmHg 34%
15:00 +35°C° 0 mm 1 m/s 740 mmHg 33%
16:00 +35°C° 0 mm 2 m/s 740 mmHg 37%
17:00 +32°C° 0 mm 2 m/s 741 mmHg 42%
18:00 +31°C° 0 mm 2 m/s 741 mmHg 46%
19:00 +30°C° 0 mm 2 m/s 741 mmHg 49%
20:00 +29°C° 0 mm 2 m/s 742 mmHg 52%
21:00 +28°C° 0 mm 2 m/s 742 mmHg 55%
22:00 +27°C° 0 mm 2 m/s 742 mmHg 60%
23:00 +26°C° 0 mm 2 m/s 742 mmHg 65%
Mostrar mais

Necessitamos do seu Consentimento

A Meteoprog e os seus Fornecedores de Serviços podem armazenar e aceder a dados pessoais como cookies, identificadores do dispositivo ou outras tecnologias semelhantes existentes no seu dispositivo e processar estes dados para personalizar conteúdos e anúncios, assim como funcionalidades nas redes sociais e análise de tráfego.

  • Armazenar e/ou aceder a informações no seu dispositivo

    Os cookies, identificadores do dispositivo ou outras informações podem ser armazenados ou acedidos no seu dispositivo, para os fins acima indicados.

  • Anúncios e conteúdos personalizados, medição de anúncios e conteúdos, dados sobre o público-alvo e desenvolvimento de produtos

    Os anúncios e os conteúdos podem ser personalizados com base num perfil. Podem ser adicionados dados adicionais para uma maior personalização dos anúncios e dos conteúdos. A eficácia dos anúncios e dos conteúdos pode ser medida. Podem ser obtidas informações sobre o público que visualizou os anúncios e os conteúdos. Estes dados podem ser usados para desenvolver ou melhorar sistemas, softwares ou a experiência do utilizador.

Ao clicar em "Eu concordo”, permitirá o uso de cookies, identificadores do dispositivo e web beacons mencionados ou outras tecnologias semelhantes. As configurações do navegador do seu dispositivo podem ser alteradas.

Para certos fins, podem ser invocados interesses legítimos ao invés de consentimento. Pode ler mais informação sobre este assunto na nossa Política de Privacidade e Cookies.